User: anonymous   Login
Location: Unspecified
(0.0000°N, 0.0000°E)
Time: 02:00:22
(UTC+00:00)
Language:

TBA - TO BE ASSIGNED - Orbit

View from above orbital plane
View from above orbital plane
View from above satellite
View from above satellite

Ground track
Ground track

The orbit is defined by the following mean orbital elements,

1 68567U          26145.02757631 +.00000000 +00000-0 +67914-3 0 00004
2 68567  53.1592   7.1805 0001020  99.0526 261.0592 15.34417667    03
Epoch (UTC): 25 May 2026 00:39:42
Eccentricity: 0.0001020
inclination: 53.1592°
perigee height: 462 km
apogee height: 463 km
right ascension of ascending node: 7.1805°
argument of perigee: 99.0526°
revolutions per day: 15.34417667
mean anomaly at epoch: 261.0592°

The dashed part of the orbit path shows where the satellite is in the earth's shadow,  

DLR